Home > Weather > Hebron > Past weeks

Flag for Palestinian Territories Weather for the Past 2 Weeks in Hebron, West Bank, Palestinian Territories

Now
52 °F

Broken clouds.


Feels Like: 50 °F
Forecast: 36 / 45 °F
Wind: 6 mph from South

Location: Ben Gurion International Airport

Current Time: Feb 7, 2016 at 8:22:16 AM

Latest Report: Feb 7, 2016 at 7:50 AM


Visibility: N/A

Pressure: 29.98 "Hg (26.92 "Hg at 894m altitude)

Humidity: 88%

Dew point: 48 °F

Location of HebronLocation

Historic Weather in Hebron — Graph

°F

Hebron Temperature Yesterday

Maximum temperature yesterday: 63 °F (at 11:50 AM)
Minimum temperature yesterday: 52 °F (at 4:50 PM)
Average temperature yesterday: 56 °F

High & Low Weather Summary for the Past Weeks

 TemperatureHumidityPressure
High75 °F (Feb 4, 2:20 PM)94% (Jan 23, 6:20 AM)30.45 "Hg (Jan 23, 6:20 AM)
Low34 °F (Jan 28, 5:50 AM)21% (Feb 4, 2:20 PM)29.92 "Hg (Feb 5, 1:20 PM)
Average52 °F70%30.19 "Hg
* Reported Jan 23 6:20 AM — Feb 7 6:50 AM, Hebron, Weather by CustomWeather, © 2016

Note: Actual official high and low records may vary slightly from our data, if they occured in-between our weather recording intervals... More about our weather records

Advertising

Hebron Weather History for the Previous 24 Hours

 ConditionsComfort  
Time TempWeatherWind HumidityBarometerVisibility
6:50 AM
Sun, Feb 7
50 °FBroken clouds.12 mph88%29.95 "HgN/A
6:20 AM50 °FPartly cloudy.10 mph88%29.95 "HgN/A
5:20 AM50 °FRain. Passing clouds.7 mph94%29.95 "Hg6 mi
4:50 AM50 °FLight rain. Passing clouds.6 mph94%29.95 "Hg6 mi
4:20 AM48 °FRain. Passing clouds.12 mph94%29.95 "Hg5 mi
3:20 AM50 °FLight rain. Passing clouds.15 mph88%29.92 "HgN/A
2:50 AM50 °FLight rain. Passing clouds.12 mph88%29.92 "HgN/A
2:20 AM50 °FRain. Passing clouds.13 mph88%29.95 "HgN/A
1:50 AM50 °FPassing clouds.12 mph94%29.95 "HgN/A
1:20 AM50 °FLight rain. Passing clouds.10 mph94%29.95 "HgN/A
12:50 AM52 °FPassing clouds.7 mph88%29.95 "HgN/A
12:20 AM54 °FPassing clouds.14 mph77%29.95 "HgN/A
11:50 PM
Sat, Feb 6
54 °FRain. Passing clouds.8 mph77%29.95 "HgN/A
11:20 PM54 °FRain. Passing clouds.16 mph72%29.98 "HgN/A
10:50 PM55 °FPassing clouds.14 mph63%29.98 "HgN/A
10:20 PM57 °FPassing clouds.17 mph59%29.98 "HgN/A
9:50 PM57 °FPassing clouds.18 mph59%29.98 "HgN/A
9:20 PM57 °FPassing clouds.16 mph59%29.98 "HgN/A
8:50 PM55 °FPassing clouds.8 mph67%29.95 "HgN/A
8:20 PM52 °FPassing clouds.8 mph88%29.98 "HgN/A
7:50 PM52 °FPassing clouds.10 mph88%29.98 "HgN/A
7:20 PM52 °FPassing clouds.10 mph82%29.95 "HgN/A
6:50 PM52 °FRain. Passing clouds.14 mph82%29.98 "Hg6 mi
6:20 PM52 °FHeavy rain. Passing clouds.12 mph88%29.98 "Hg5 mi
5:50 PM54 °FLight rain. Passing clouds.12 mph77%29.98 "HgN/A
5:20 PM52 °FPartly cloudy.10 mph82%29.95 "HgN/A
4:50 PM52 °FLight rain. Broken clouds.14 mph82%29.95 "Hg5 mi
4:20 PM55 °FBroken clouds.13 mph67%29.95 "HgN/A
3:50 PM55 °FBroken clouds.14 mph77%29.95 "HgN/A
3:20 PM55 °FBroken clouds.14 mph82%29.95 "HgN/A
2:50 PM54 °FLight rain. Broken clouds.22 mph88%29.95 "Hg6 mi
2:20 PM55 °FLight rain. Broken clouds.17 mph82%29.95 "HgN/A
1:50 PM55 °FBroken clouds.28 mph82%29.95 "HgN/A
1:20 PM59 °FLight rain. Partly sunny.15 mph72%29.95 "HgN/A
12:50 PM61 °FPartly sunny.20 mph63%29.95 "HgN/A
12:20 PM63 °FScattered clouds.20 mph56%29.95 "HgN/A
11:50 AM63 °FScattered clouds.20 mph64%29.98 "HgN/A
11:20 AM61 °FPartly sunny.18 mph63%29.98 "HgN/A
10:50 AM61 °FScattered clouds.15 mph63%30.01 "HgN/A
10:20 AM61 °FBroken clouds.17 mph68%30.01 "HgN/A
9:50 AM61 °FBroken clouds.15 mph68%30.01 "HgN/A
9:20 AM61 °FScattered clouds.16 mph68%30.01 "HgN/A
8:50 AM59 °FScattered clouds.13 mph72%30.01 "HgN/A
8:20 AM59 °FScattered clouds.14 mph77%30.01 "HgN/A
Weather by CustomWeather, © 2016

See weather overviewHow to use our weather pages